2020-040B (45808 NORAD) Tracking and Keplerian Element Data

This shows tracking and keplerian element data for the satellite.

Feedback or suggestion? Click here.




ElementValue
Catalog45808
Name2020-040B
Epoch Orbit24
Epoch Day184.49006926
Epoch Year2020
RAAN291.0979
Inclination28.3886
Eccentricity0.7219229
Argument of Perigee185.0192
Mean Anonmoly158.8596
Mean Motion2.38846846
Decay Rate0.00017642
L11 45808U 20040B 20184.49006926 .00017642 87052-6 12992-2 0 9995
L22 45808 28.3886 291.0979 7219229 185.0192 158.8596 2.38846846 244

Live tracking and technical data element details for 2020-040B (NORAD 45808). 2020-040B can be tracked NOW for your location showing map with azimuth and elevation plus other details from your city location.

Track the satellite on the map from your city or location and see movement details for azimuth, elevation, latitude, longitude, range, height, and movement on the map or in text.







IsCatalogInMostPopularTable: catalog: 45808, numindb: 6
Update: records affected: 1



GetName: 45808 2020-040B

Hit Count: updated at: Fri, 10 Jul 2020 15:19:41 GMT